Location: Bacharowice
(49.9333°N, 19.5833°E)
Time: 23:32:05
(UTC+00:00)

Okean 2 Rocket - Pass Details

Date: 11 May 2021
Orbit: 617 x 641 km, 82.5° (Epoch: 21 June)

Event Time Altitude Azimuth Distance (km) Brightness Sun altitude
Rises 23:16:38 0° 348° (NNW) 2,906 7.7 -21.4°
Reaches altitude 10° 23:18:53 10° 347° (NNW) 1,994 6.6 -21.3°
Maximum altitude 23:23:17 75° 263° (W) 644 3.0 -21.2°
Enters shadow 23:23:58 60° 201° (SSW) 708 3.0 -21.2°
